Flag for Germany Weather past 2 weeks in Forchheim, Bavaria, Germany

Now
73 °F

Scattered clouds.


Feels Like: 76 °F
Forecast: 53 / 74 °F
Wind: 3 mph from Southeast

Location: Bamberg

Current Time: Sep 16, 2014 at 2:21:09 PM

Latest Report: Sep 16, 2014 at 2:00 PM


Visibility: 25 mi

Pressure: 29.99 "Hg

Humidity: 63%

Dew point: 59 °F

Location of ForchheimLocation

Historic Weather in Forchheim — Graph

°F

Forchheim temperature yesterday

Maximum temperature yesterday: 72 °F (at 3:00 PM)
Minimum temperature yesterday: 54 °F (at 11:00 PM)
Average temperature yesterday: 63 °F

Past Weeks' High & Low Weather Summary

 TemperatureHumidityPressure
High78 °F (Sep 5, 3:00 PM)100% (Sep 2, 1:00 AM)30.19 "Hg (Sep 2, 1:00 AM)
Low43 °F (Sep 11, 5:00 AM)47% (Sep 9, 5:00 PM)29.86 "Hg (Sep 6, 5:00 PM)
Average61 °F88%30.04 "Hg
* Reported Sep 1 1:00 PM — Sep 16 1:00 PM, Forchheim, Weather by CustomWeather, © 2014

Note: Actual official high and low records may vary slightly from our data, if they occured in-between our weather recording intervals... More about our weather records

Advertising

Forchheim weather history for previous 24 hours

 ConditionsComfort  
Time TempWeatherWind HumidityBarometerVisibility
1:00 PM
Sep 16
72 °FPartly sunny.3 mph63%30.00 "Hg19 mi
12:00 PM71 °FHaze.2 mph70%30.01 "Hg17 mi
11:00 AM66 °FScattered clouds.2 mph76%30.03 "Hg14 mi
10:00 AM63 °FSunny.1 mph89%30.04 "Hg10 mi
9:00 AM55 °FSunny.1 mph100%30.05 "Hg6 mi
8:00 AM50 °FSunny.1 mph100%30.05 "Hg2 mi
7:00 AM49 °FSunny.1 mph100%30.04 "Hg1 mi
6:00 AM49 °FClear.1 mph100%30.04 "Hg1 mi
5:00 AM50 °FFog.1 mph100%30.04 "Hg3 mi
4:00 AM51 °FFog.1 mph100%30.03 "Hg3 mi
3:00 AM52 °FFog.No wind100%30.04 "Hg3 mi
2:00 AM53 °FFog.No wind100%30.03 "Hg4 mi
1:00 AM54 °FFog.1 mph100%30.03 "Hg4 mi
12:00 AM54 °FFog.1 mph100%30.03 "Hg4 mi
11:00 PM
Sep 15
54 °FFog.No wind100%30.03 "Hg4 mi
10:00 PM56 °FOvercast.1 mph100%30.02 "Hg6 mi
9:00 PM58 °FOvercast.1 mph100%30.02 "Hg5 mi
8:00 PM60 °FPassing clouds.1 mph97%30.01 "Hg6 mi
7:00 PM65 °FOvercast.1 mph90%29.99 "Hg14 mi
6:00 PM68 °FPartly sunny.1 mph75%29.99 "Hg22 mi
5:00 PM71 °FOvercast.3 mph65%29.99 "Hg28 mi
4:00 PM71 °FOvercast.3 mph62%29.99 "Hg31 mi
3:00 PM72 °FOvercast.1 mph59%30.00 "Hg22 mi
2:00 PM72 °FScattered clouds.2 mph66%30.02 "Hg19 mi
Weather by CustomWeather, © 2014

See weather overviewHow to use our weather pages